Total_Precipitation_Accumulation
0.25 0.25 0.41 0.33 0.24 0.31 0.41 0.41 0.36 0.31 0.29 0.33 0.34 0.34 0.35 0.38 0.37 0.36 0.35 0.39 0.43 0.46 0.47 0.51 0.49 0.52 0.53 0.48 0.46 0.39 0.38 0.39 0.47 0.54 0.58 0.58 0.64 0.86 1.14 1.20 1.22 0.76 0.68
0.11 0.14 0.30 0.28 0.20 0.26 0.36 0.39 0.37 0.35 0.32 0.33 0.37 0.42 0.49 0.50 0.42 0.37 0.39 0.41 0.41 0.45 0.43 0.38 0.38 0.40 0.44 0.40 0.35 0.31 0.39 0.50 0.62 0.76 0.74 0.63 0.66 0.87 1.05 1.06 1.22 0.72 0.63
0.08 0.09 0.19 0.26 0.21 0.23 0.33 0.37 0.40 0.45 0.44 0.41 0.43 0.46 0.51 0.47 0.41 0.38 0.40 0.39 0.39 0.41 0.36 0.34 0.33 0.31 0.35 0.34 0.34 0.38 0.50 0.66 0.87 1.01 1.13 0.70 0.49 0.80 0.91 0.90 0.81 0.66 0.63
0.12 0.08 0.11 0.19 0.22 0.24 0.34 0.40 0.55 0.56 0.52 0.47 0.49 0.47 0.43 0.38 0.35 0.33 0.36 0.39 0.42 0.37 0.34 0.29 0.27 0.26 0.28 0.28 0.34 0.47 0.62 0.77 0.95 1.30 1.31 0.67 0.39 0.55 0.69 0.71 0.62 0.59 0.55
0.13 0.10 0.12 0.18 0.20 0.30 0.39 0.45 0.50 0.44 0.41 0.42 0.46 0.44 0.43 0.38 0.37 0.36 0.36 0.37 0.39 0.36 0.31 0.26 0.26 0.25 0.26 0.29 0.38 0.51 0.64 0.77 1.04 1.22 0.86 0.75 0.69 0.61 0.56 0.60 0.61 0.58 0.47
0.13 0.12 0.15 0.20 0.25 0.32 0.33 0.35 0.41 0.43 0.40 0.40 0.42 0.44 0.42 0.41 0.42 0.38 0.31 0.31 0.32 0.34 0.31 0.27 0.25 0.24 0.25 0.31 0.38 0.49 0.64 0.86 1.00 0.69 0.59 0.57 0.58 0.63 0.55 0.70 0.77 0.65 0.53
0.17 0.14 0.18 0.28 0.32 0.34 0.31 0.32 0.34 0.38 0.41 0.44 0.44 0.41 0.40 0.38 0.39 0.37 0.30 0.27 0.29 0.31 0.28 0.27 0.26 0.28 0.32 0.36 0.40 0.51 0.69 0.99 0.81 0.52 0.56 0.63 0.59 0.55 0.64 0.86 1.02 0.89 0.73
0.29 0.23 0.27 0.36 0.37 0.37 0.33 0.33 0.34 0.35 0.36 0.36 0.36 0.37 0.35 0.32 0.36 0.40 0.38 0.30 0.28 0.29 0.26 0.25 0.24 0.30 0.37 0.41 0.47 0.53 0.67 0.75 0.46 0.42 0.42 0.50 0.44 0.46 0.70 0.92 1.08 1.06 0.96
0.44 0.31 0.33 0.41 0.44 0.42 0.46 0.42 0.41 0.39 0.38 0.38 0.38 0.39 0.36 0.33 0.34 0.36 0.43 0.39 0.33 0.34 0.32 0.30 0.28 0.31 0.37 0.43 0.48 0.52 0.62 0.66 0.51 0.49 0.44 0.46 0.44 0.63 0.97 1.10 1.11 1.11 1.08
0.84 0.62 0.53 0.49 0.48 0.46 0.46 0.49 0.49 0.46 0.41 0.40 0.41 0.38 0.39 0.40 0.39 0.42 0.41 0.44 0.44 0.46 0.48 0.44 0.41 0.41 0.41 0.43 0.49 0.55 0.59 0.58 0.60 0.57 0.53 0.42 0.51 0.81 1.13 1.27 1.28 1.23 1.13
1.02 0.83 0.72 0.62 0.57 0.57 0.50 0.50 0.58 0.56 0.51 0.51 0.54 0.50 0.58 0.72 0.66 0.71 0.62 0.69 0.68 0.68 0.71 0.69 0.70 0.70 0.66 0.56 0.64 0.73 0.65 0.69 0.74 0.66 0.53 0.43 0.61 0.91 1.21 1.34 1.34 1.31 1.20
1.19 1.01 0.89 0.75 0.64 0.58 0.57 0.70 0.91 0.77 0.76 0.82 0.93 0.94 1.13 1.32 1.29 0.84 0.87 1.12 1.19 1.26 1.22 1.19 1.20 1.02 0.88 0.83 1.21 1.42 0.84 0.81 0.86 0.76 0.64 0.66 0.90 1.16 1.43 1.39 1.31 1.33 1.22
1.58 1.36 1.14 0.98 0.82 0.76 0.91 0.84 0.97 1.10 1.18 1.21 1.24 1.25 1.41 1.34 1.15 0.97 1.08 1.35 1.59 1.65 1.54 1.70 1.75 1.41 1.48 1.72 1.72 1.56 1.10 1.20 1.19 1.08 0.94 1.07 1.29 1.57 1.93 1.75 1.45 1.32 1.26
1.82 1.68 1.62 1.38 1.22 1.30 1.25 0.99 0.94 0.99 1.09 1.25 1.49 1.44 1.53 1.72 1.62 1.56 1.61 1.65 1.79 1.98 2.22 2.18 2.33 2.16 2.08 1.96 1.96 1.84 1.59 1.62 1.56 1.66 1.60 1.46 1.53 1.76 2.22 2.19 1.77 1.48 1.32
1.99 1.93 1.91 1.86 1.68 1.76 1.58 1.37 1.20 1.31 1.32 1.37 1.50 1.63 1.59 1.80 1.97 1.97 1.93 1.89 1.81 1.89 2.06 2.25 2.28 2.62 2.73 2.35 1.98 1.87 1.86 1.92 1.83 1.81 1.73 1.65 1.57 1.70 2.05 2.26 2.11 1.88 1.60
2.36 2.37 2.19 2.14 2.14 2.11 2.02 1.97 1.89 1.68 1.69 1.63 1.59 1.60 1.63 1.85 2.07 2.18 2.06 2.03 1.91 1.87 2.03 2.20 2.37 2.84 2.87 2.68 2.25 2.02 1.94 1.90 1.75 1.69 1.75 1.93 1.76 1.64 1.76 2.02 2.21 2.17 2.01
2.79 2.80 2.80 2.76 2.89 2.81 2.62 2.47 2.28 2.11 1.95 1.91 1.96 1.97 1.87 1.89 2.06 2.08 1.93 1.84 1.87 2.01 2.17 2.21 2.36 2.67 2.44 2.41 2.21 2.05 1.86 1.68 1.52 1.46 1.62 1.79 1.68 1.62 1.73 1.86 2.03 2.10 2.19
3.05 3.17 3.32 3.35 3.34 3.18 3.12 3.02 2.77 2.56 2.39 2.22 2.15 2.19 2.02 1.94 1.96 2.11 1.93 1.77 2.06 2.14 2.22 2.43 2.56 2.59 2.55 2.55 2.32 2.01 1.78 1.65 1.35 1.25 1.26 1.35 1.53 1.36 1.59 1.80 1.84 1.88 2.10
3.52 3.75 3.90 3.91 3.76 3.49 3.48 3.44 3.28 3.10 2.75 2.39 2.23 2.13 2.00 1.94 2.03 2.28 2.24 2.30 2.39 2.42 2.42 2.31 2.60 2.61 2.54 2.54 2.26 1.98 1.63 1.44 1.24 1.11 1.05 0.99 1.11 1.19 1.27 1.42 1.54 1.61 1.96
4.05 4.42 4.22 4.10 4.24 4.11 3.94 3.76 3.46 3.03 2.62 2.46 2.36 2.16 2.05 2.05 2.13 2.47 2.32 2.28 2.36 2.49 2.51 2.46 2.47 2.49 2.28 2.25 2.10 1.86 1.48 1.16 1.06 0.98 0.85 0.83 0.87 0.81 0.95 1.18 1.41 1.25 1.56
4.11 4.48 4.60 4.57 4.42 4.20 3.77 3.42 3.17 2.94 2.79 2.53 2.34 2.24 2.11 2.01 2.10 2.40 2.30 2.39 2.34 2.34 2.35 2.39 2.41 2.27 1.93 2.12 2.22 1.81 1.36 1.06 1.04 0.81 0.73 0.74 0.75 0.73 0.91 1.17 1.33 1.32 1.22
3.78 4.22 4.48 4.61 4.46 4.08 3.63 3.37 3.21 3.15 2.81 2.51 2.46 2.46 2.26 2.26 2.24 2.23 2.30 2.26 2.30 2.38 2.28 2.24 2.31 2.15 1.79 1.91 2.07 2.14 1.60 1.26 0.97 0.69 0.74 0.83 0.91 0.97 0.98 1.07 1.21 1.32 1.30
3.32 3.61 3.72 3.86 3.80 3.62 3.60 3.56 3.45 3.38 2.95 2.78 2.74 2.70 2.52 2.48 2.40 2.35 2.29 2.18 2.11 1.99 1.95 2.00 2.05 2.04 1.88 1.78 1.95 2.22 1.85 1.42 1.19 0.84 0.79 0.86 1.04 1.23 1.20 1.21 1.20 1.32 1.41
2.86 3.17 3.40 3.44 3.38 3.27 3.34 3.33 3.17 2.95 2.77 2.84 3.05 2.99 2.69 2.47 2.26 2.01 1.86 1.88 1.87 1.81 1.77 1.57 1.64 1.74 1.68 1.53 1.65 1.76 1.81 1.83 1.75 1.20 0.86 0.81 0.98 1.13 1.25 1.16 1.14 1.25 1.40
2.45 2.70 2.97 3.23 3.30 3.23 3.24 3.15 3.13 2.99 2.95 2.95 2.87 2.75 2.49 2.25 1.95 1.66 1.55 1.62 1.63 1.57 1.48 1.41 1.49 1.42 1.35 1.31 1.46 1.64 1.74 1.80 1.78 1.67 1.29 1.18 1.16 1.02 1.05 1.08 1.20 1.26 1.27
2.07 2.19 2.32 2.55 2.82 2.96 2.96 2.91 2.90 2.81 2.75 2.65 2.45 2.26 2.04 1.85 1.61 1.37 1.26 1.37 1.46 1.48 1.44 1.38 1.40 1.30 1.30 1.40 1.39 1.48 1.66 1.64 1.65 1.75 1.49 1.36 1.27 1.03 1.02 1.13 1.16 1.30 1.33